This is the latest recevied weather packets stored in our database for station/object KF4CQ. If no packets are shown the sender has not sent any weather packets the latest 10 day(s).
| Time | Temp. | Humidity | Pressure | Rain* | Wind** | Luminosity | Snow |
|---|---|---|---|---|---|---|---|
| 1777680693 | 27.22° C | 65% | 1011.6 hPa | 0 mm | - | 1 W/m² | - |
| 1777680390 | 27.22° C | 64% | 1011.7 hPa | 0 mm | - | 1 W/m² | - |
| 1777680088 | 27.78° C | 63% | 1011.6 hPa | 0 mm | - | 2 W/m² | - |
| 1777679784 | 27.78° C | 62% | 1011.4 hPa | 0 mm | - | 5 W/m² | - |
| 1777679480 | 27.78° C | 62% | 1011.4 hPa | 0 mm | - | 8 W/m² | - |
| 1777679175 | 27.78° C | 61% | 1011.4 hPa | 0 mm | - | 8 W/m² | - |
| 1777678873 | 28.33° C | 59% | 1011.2 hPa | 0 mm | - | 10 W/m² | - |
| 1777678571 | 28.33° C | 58% | 1011.1 hPa | 0 mm | - | 12 W/m² | - |
| 1777678268 | 28.89° C | 57% | 1011.1 hPa | 0 mm | - | 16 W/m² | - |
| 1777677964 | 28.89° C | 56% | 1011.1 hPa | 0 mm | - | 18 W/m² | - |
| 1777677662 | 28.89° C | 56% | 1011.2 hPa | 0 mm | - | 24 W/m² | - |
| 1777677359 | 28.89° C | 54% | 1011.1 hPa | 0 mm | - | 24 W/m² | - |
| 1777677057 | 28.89° C | 54% | 1011.1 hPa | 0 mm | - | 26 W/m² | - |
| 1777676756 | 28.89° C | 55% | 1011 hPa | 0 mm | - | 29 W/m² | - |
| 1777676453 | 28.89° C | 55% | 1011.1 hPa | 0 mm | - | 29 W/m² | - |
| 1777676150 | 29.44° C | 55% | 1010.8 hPa | 0 mm | - | 21 W/m² | - |
| 1777675846 | 29.44° C | 54% | 1010.7 hPa | 0 mm | - | 21 W/m² | - |
| 1777675544 | 30° C | 54% | 1010.7 hPa | 0 mm | - | 40 W/m² | - |
| 1777675241 | 30° C | 53% | 1010.7 hPa | 0 mm | - | 50 W/m² | - |
| 1777674937 | 30.56° C | 53% | 1010.7 hPa | 0 mm | - | 79 W/m² | - |
| 1777674634 | 30.56° C | 54% | 1010.7 hPa | 0 mm | - | 57 W/m² | - |
| 1777674334 | 30° C | 55% | 1010.7 hPa | 0 mm | - | 66 W/m² | - |
| 1777674028 | 30.56° C | 54% | 1010.6 hPa | 0 mm | - | 78 W/m² | - |
| 1777673724 | 30° C | 55% | 1010.5 hPa | 0 mm | - | 75 W/m² | - |
| 1777673422 | 30° C | 55% | 1010.5 hPa | 0 mm | - | 59 W/m² | - |
* Rain latest hour (hover to see other rain measurements)
** Current wind speed in m/s (hover to see current wind gust speed)